Theta_e
335 318 318 320 337 341 334 329 327 333 338 336 339 338 332 315 310 308 308 308 309 309 309 309 309 308 308 308 308 308 308 308 309 310 313 316 325 330 331 331 331 332 332
328 318 320 327 340 337 328 326 333 333 333 335 336 330 315 309 308 309 309 308 308 308 308 308 307 307 307 307 307 306 306 307 308 309 316 318 325 329 329 328 324 323 329
332 319 331 340 339 330 326 328 330 331 331 332 326 314 309 308 309 308 308 308 308 307 307 307 307 307 307 307 307 306 306 307 309 311 312 313 315 318 314 310 310 309 314
332 321 337 340 334 326 327 326 328 327 326 320 312 309 308 309 308 308 308 307 307 307 308 307 307 307 306 307 307 307 308 309 311 311 310 310 309 312 324 327 329 326 316
326 322 331 333 327 326 327 327 323 319 315 311 309 308 308 308 308 307 308 308 308 307 307 307 306 306 306 307 307 308 309 311 311 311 311 317 329 328 326 323 326 327 327
324 323 331 328 327 327 328 323 316 313 311 309 308 308 308 308 307 308 308 308 308 307 307 307 306 306 306 307 308 310 311 312 312 313 321 328 326 326 325 320 323 325 325
323 326 331 327 327 328 326 318 313 311 309 308 308 308 308 307 308 308 308 308 307 307 307 306 306 305 306 308 310 312 312 312 313 313 316 321 322 326 326 325 325 320 319
324 327 329 329 328 329 322 313 311 309 308 308 308 308 307 308 308 308 308 307 307 307 307 306 306 305 306 308 312 312 313 314 314 313 313 319 324 324 324 322 321 322 321
324 328 334 332 332 327 317 312 309 308 308 308 308 308 308 308 308 308 307 307 307 307 307 307 306 306 306 308 311 312 313 313 313 312 313 323 323 323 320 317 312 321 324
326 331 334 333 333 323 313 310 309 309 309 308 308 308 308 308 308 308 308 308 308 308 308 308 307 307 306 306 311 312 313 313 313 310 318 323 323 320 316 310 312 326 323
328 334 334 334 332 319 312 309 309 309 308 308 308 308 308 308 308 308 308 308 308 308 308 308 308 307 307 307 309 311 312 312 312 312 321 323 321 317 308 308 311 319 320
331 334 335 335 329 316 310 309 309 308 308 308 308 308 309 309 308 308 308 308 308 308 308 308 307 308 307 308 308 310 311 312 312 314 312 315 312 310 308 306 319 317 316
332 334 335 334 327 314 310 309 309 308 308 309 308 309 309 309 308 308 308 308 308 308 308 307 307 307 307 308 308 309 311 312 313 314 312 310 309 309 308 307 306 306 305
334 335 335 334 325 313 310 310 309 309 309 309 309 309 309 309 309 308 308 308 308 308 308 307 307 307 307 307 308 310 310 311 313 312 310 308 308 307 307 306 306 305 306
335 335 336 333 322 311 310 310 310 309 309 309 309 310 309 309 309 308 308 308 308 308 307 307 306 306 306 307 307 309 310 311 311 310 309 308 309 307 308 307 307 307 306
335 336 335 332 317 312 311 310 310 309 309 309 309 309 309 309 309 308 308 308 308 308 307 306 306 305 305 305 306 307 308 310 310 309 309 306 308 308 308 307 307 307 306
336 335 334 333 319 313 313 311 310 310 309 309 309 309 309 309 309 308 308 308 308 307 306 306 305 305 305 305 305 306 307 309 309 309 308 307 306 306 306 307 306 305 306
336 336 333 333 320 315 314 312 310 310 309 309 309 309 309 309 309 308 308 308 308 307 306 306 306 306 306 306 306 306 306 307 307 308 308 308 306 306 306 306 305 305 305
336 336 334 332 322 316 315 313 311 310 310 310 310 309 309 309 309 308 308 308 307 306 306 307 306 306 306 306 306 306 307 308 307 307 307 308 307 307 307 307 307 306 305
337 337 334 330 322 317 315 313 312 311 311 311 310 310 310 310 309 308 308 308 307 306 306 307 307 306 306 306 306 308 309 308 308 306 307 308 307 308 308 307 306 306 306
337 335 334 330 321 317 315 314 312 313 313 312 312 311 310 310 310 309 308 308 306 306 307 307 307 306 306 306 306 306 309 309 308 307 306 308 306 308 307 306 305 305 305
334 335 334 327 322 318 317 315 315 315 314 314 313 311 311 310 310 308 308 307 306 306 307 306 306 306 306 306 306 306 306 308 308 306 306 307 305 306 305 304 304 303 303
330 334 333 328 324 322 317 315 315 314 315 315 313 312 311 310 309 308 308 307 306 306 306 307 306 306 305 305 305 305 305 305 305 307 305 308 305 304 304 304 303 303 303
330 334 333 329 323 323 318 318 321 322 321 315 314 312 311 310 309 308 307 306 306 306 306 306 306 305 305 304 304 304 304 304 304 305 306 307 304 304 304 303 303 303 303
328 321 323 325 325 325 322 322 323 323 321 319 317 317 321 317 313 307 306 305 305 305 306 305 305 305 304 304 303 303 303 303 304 306 304 303 303 303 303 303 303 303 302
329 328 318 318 319 322 322 325 325 325 325 324 323 319 312 311 308 306 305 305 305 305 305 305 304 304 303 303 303 302 302 302 302 301 301 302 302 303 302 302 302 301 301
Wind_Speed
23 23 25 24 21 21 17 14 13 12 13 12 11 8 3 3 4 4 4 3 3 3 3 3 4 4 4 4 4 4 3 2 1 0 1 2 3 2 1 5 4 4 3
30 27 27 25 23 20 17 16 14 12 10 11 8 4 2 3 4 5 4 4 5 5 6 6 6 6 6 6 6 6 5 5 4 3 2 3 4 4 4 6 8 7 7
30 30 28 25 23 19 17 14 13 11 9 7 4 3 3 4 5 5 5 6 6 7 7 7 7 8 8 8 8 7 7 6 6 4 2 2 1 3 7 8 8 6 8
31 32 29 26 23 20 17 15 13 11 9 7 6 5 5 5 5 6 6 7 7 7 8 8 8 8 8 9 9 7 8 6 6 8 6 7 9 11 12 10 14 13 9
33 33 29 24 22 20 18 15 13 11 9 8 7 7 6 6 6 7 8 8 8 8 9 9 9 9 9 9 9 8 9 8 9 11 12 15 17 10 8 5 11 9 9
34 32 28 24 22 20 17 15 13 12 10 8 8 8 7 7 8 9 9 9 9 9 10 10 10 10 10 10 10 11 8 9 11 13 13 16 12 6 5 5 3 5 5
34 31 27 25 21 19 17 15 14 12 11 10 9 9 9 9 9 10 10 10 10 10 10 11 11 11 11 11 11 11 9 10 11 12 10 9 11 15 14 15 13 5 2
33 31 27 23 20 18 15 15 14 13 12 12 11 10 10 10 10 10 10 10 11 11 11 11 11 11 11 12 12 10 10 11 11 12 11 13 12 12 14 12 10 12 13
32 30 27 23 21 18 16 15 14 14 14 13 13 13 11 11 10 10 10 10 11 11 12 12 11 11 10 10 10 8 11 11 10 12 11 13 11 13 13 13 13 16 13
32 31 28 25 22 18 17 15 14 14 14 15 15 14 13 11 10 10 9 9 10 11 11 12 12 12 11 10 9 7 10 10 11 11 12 12 10 12 13 14 12 14 14
34 31 28 25 20 18 17 16 16 15 16 16 15 14 13 11 10 9 9 9 9 10 10 11 11 12 12 11 9 7 9 10 10 11 12 10 6 12 15 14 12 12 9
36 32 29 26 21 19 18 17 16 17 17 16 16 14 12 11 10 9 8 9 9 9 9 10 11 11 11 11 10 7 8 9 9 11 8 4 9 12 14 13 13 12 10
35 33 30 26 22 20 19 18 18 18 17 16 15 13 11 10 9 9 8 9 9 9 9 9 9 9 10 10 9 8 8 8 10 10 10 9 9 11 12 12 12 12 11
36 34 30 26 23 21 20 19 17 17 16 16 15 13 10 9 8 8 8 8 8 8 8 8 8 9 9 9 9 8 7 8 9 10 10 11 11 11 11 12 13 13 13
35 33 30 27 25 24 21 19 19 18 16 14 14 12 10 8 7 8 7 7 7 7 7 7 8 8 8 7 7 6 6 7 8 9 10 11 11 11 12 12 13 13 13
35 34 29 27 26 25 23 20 19 17 16 14 13 11 9 8 7 7 7 7 6 6 7 7 7 7 7 6 6 5 4 5 6 7 8 12 11 11 10 11 12 12 13
37 36 32 27 27 26 24 21 19 18 17 15 13 11 10 8 7 7 7 6 6 5 6 6 7 7 7 6 4 5 4 3 5 6 7 13 9 12 10 10 14 13 11
41 38 34 31 28 27 24 21 20 18 17 16 14 12 10 8 6 6 6 6 6 5 5 6 7 7 6 6 4 3 3 4 4 7 7 11 11 12 12 12 14 14 14
44 41 37 34 32 28 24 22 20 19 17 16 14 12 9 7 6 5 5 5 5 4 5 6 7 7 7 6 5 3 4 5 7 8 6 7 11 11 11 14 16 16 16
45 41 38 36 34 31 28 25 22 20 18 15 13 11 9 7 5 4 4 5 4 4 4 5 6 7 7 6 5 5 4 7 4 7 5 5 9 9 11 15 16 16 18
44 44 42 40 38 36 33 30 27 23 20 17 14 11 9 7 5 4 4 4 4 4 4 5 6 6 6 5 2 3 4 3 4 3 4 4 8 7 10 15 16 17 17
44 46 43 42 41 37 33 29 26 23 19 14 12 10 8 6 5 5 5 5 4 3 4 4 5 6 7 7 6 3 1 2 3 5 5 3 10 10 13 15 15 16 18
50 50 45 43 41 37 34 30 28 23 20 18 14 11 9 7 5 5 6 6 4 3 2 3 4 5 6 8 8 6 3 2 12 5 7 6 13 9 15 14 14 17 18
44 50 46 47 43 38 35 32 30 28 24 19 15 13 12 9 6 6 7 7 5 4 2 2 3 4 5 5 6 6 6 6 4 7 3 9 17 18 17 16 16 17 16
37 32 46 45 42 38 35 32 28 27 23 22 19 15 12 9 6 9 8 6 6 4 1 1 3 4 4 4 5 6 6 8 7 9 22 21 24 20 18 19 19 18 16
34 34 23 39 37 36 34 31 28 27 22 19 17 13 10 9 11 12 10 7 5 3 2 2 2 3 4 6 7 8 9 9 10 11 17 24 28 29 27 24 22 20 18
Wind_Direction
170 169 160 153 146 155 155 146 139 132 136 144 144 137 118 89 98 102 99 87 71 52 41 34 27 24 23 22 23 27 31 34 61 225 212 181 131 106 293 316 322 331 342
158 166 159 155 160 162 154 153 151 149 150 141 147 150 129 99 93 85 76 70 63 54 47 41 37 34 34 34 38 49 61 74 96 116 117 139 167 213 239 277 286 280 280
161 162 158 161 165 163 159 155 154 155 156 158 161 150 122 106 91 79 73 66 62 58 53 45 39 37 36 38 45 60 75 85 93 91 34 343 357 303 310 337 346 309 285
165 164 163 169 166 164 161 160 162 164 166 168 158 141 124 110 96 88 82 77 72 65 57 52 50 50 51 54 59 67 74 71 71 68 54 39 37 45 52 54 42 32 22
169 168 168 167 166 165 163 162 163 166 164 159 150 136 123 112 102 95 88 80 73 68 64 61 60 59 61 65 74 81 83 72 65 67 70 71 65 59 48 32 72 53 42
171 168 166 167 168 166 163 163 162 161 158 153 146 136 127 116 107 97 90 84 78 73 69 68 67 68 70 75 83 86 85 77 74 74 84 89 67 51 20 15 89 73 63
171 167 167 169 170 165 163 163 160 157 154 149 143 135 127 117 106 98 91 85 81 77 74 73 71 73 79 87 94 89 84 81 74 66 82 65 51 57 57 54 42 31 359
171 167 166 170 167 166 165 162 160 156 152 147 140 134 125 116 107 101 96 91 86 82 78 76 72 73 84 95 98 96 89 75 69 58 69 64 59 58 51 47 49 42 37
172 167 168 169 168 166 166 164 159 154 151 145 138 133 125 116 107 101 98 95 89 83 78 76 73 71 78 89 96 91 81 71 62 56 67 71 53 55 46 46 48 53 39
172 171 172 171 170 170 166 163 158 154 150 145 140 133 126 119 111 102 100 93 90 84 78 74 74 67 69 75 96 84 75 65 60 60 71 70 58 46 43 43 50 55 51
175 176 174 171 171 171 167 164 159 154 150 145 138 135 130 122 114 109 102 98 91 88 80 71 67 60 63 67 93 80 67 62 57 63 77 73 37 35 36 43 47 52 50
178 179 176 174 173 173 170 166 160 155 152 144 141 138 133 126 117 114 108 103 98 93 84 72 62 64 66 69 76 78 65 58 55 63 71 61 5 26 34 49 56 45 41
181 179 179 176 175 175 173 168 163 158 153 146 144 141 137 129 126 115 108 103 98 91 81 75 67 71 68 68 71 69 63 55 55 50 54 44 30 32 35 34 31 26 22
183 181 178 178 177 175 176 168 166 162 157 154 147 141 133 132 126 119 111 108 105 97 81 71 62 58 62 65 68 60 62 56 50 41 42 35 38 37 35 29 26 22 20
186 183 181 180 179 177 176 170 168 164 162 159 151 145 140 134 125 123 120 115 112 96 76 65 63 56 54 58 58 65 57 55 48 45 34 26 29 31 31 27 26 23 19
190 182 185 183 180 178 177 173 169 167 165 164 159 152 150 146 139 131 126 122 113 95 76 65 60 57 50 49 55 62 57 46 46 38 30 21 18 20 20 18 15 12 11
194 184 188 186 183 182 178 172 172 171 171 171 165 162 161 155 143 139 135 129 117 93 75 59 49 48 43 35 51 60 75 47 27 24 19 15 18 11 9 5 2 359 353
196 191 186 191 188 184 179 175 174 175 173 173 169 167 167 162 150 147 145 137 127 104 81 66 54 49 41 44 53 56 70 93 57 26 16 11 18 14 13 6 359 357 354
198 192 190 191 190 186 182 179 179 176 177 173 171 170 169 166 156 152 149 141 128 110 87 60 51 50 47 43 38 64 97 95 106 44 34 23 25 19 25 10 8 3 359
197 194 193 189 191 188 185 181 177 177 175 173 174 171 171 166 158 159 161 149 134 111 85 68 58 47 44 40 58 89 109 110 100 7 20 33 18 17 11 2 356 355 352
194 195 192 190 189 190 187 183 179 178 173 172 173 168 168 163 162 164 173 159 146 124 88 65 51 44 39 44 59 92 128 121 10 67 23 23 6 3 358 347 344 342 342
208 198 194 189 191 191 191 185 181 177 171 172 172 166 170 167 171 169 176 165 161 131 90 63 40 29 21 22 29 26 125 225 313 266 340 347 6 340 337 337 338 338 332
208 197 197 192 192 191 190 182 178 175 176 174 173 173 172 169 177 185 184 180 178 158 120 66 38 24 17 12 15 18 358 335 331 219 298 264 320 318 327 330 330 332 329
228 199 197 194 190 188 189 187 187 179 177 172 172 173 168 167 176 187 201 183 180 191 140 48 25 15 8 2 356 354 345 323 333 310 280 260 304 318 322 327 330 330 326
215 190 192 192 189 188 190 191 187 177 173 178 179 184 209 200 196 182 196 186 188 197 174 353 356 349 346 343 331 331 326 317 307 284 306 307 310 316 319 320 324 325 320
213 221 191 180 183 188 186 184 186 180 180 189 195 189 169 187 191 192 189 195 193 206 246 313 326 332 327 331 331 327 325 318 305 301 301 310 312 315 318 317 319 318 315